Location: Bruderhein
(53.8035°N, 112.9265°W)
Time: 16:42:10
(UTC+00:00)

Envisat - Visible Passes

Search period start: 02 December 2021 00:00
Search period end: 12 December 2021 00:00
Orbit: 764 x 766 km, 98.2° (Epoch: 02 December)

Date Brightness Start Highest point End Pass type
(mag) Time Alt. Az. Time Alt. Az. Time Alt. Az.
02 Dec 6.2 01:28:56 10° W 01:30:23 11° W 01:31:51 10° WNW visible
02 Dec 4.9 11:47:39 10° NNE 11:52:05 29° E 11:56:28 10° SSE visible
02 Dec 3.1 13:26:25 10° N 13:31:22 53° WNW 13:36:18 10° SW visible
03 Dec 5.7 00:49:05 10° SW 00:52:58 22° W 00:56:52 10° NW visible
03 Dec 5.7 11:11:45 10° NE 11:14:45 15° E 11:17:44 10° ESE visible
03 Dec 3.0 12:49:26 10° NNE 12:54:34 85° ESE 12:59:40 10° SSW visible
03 Dec 4.2 14:29:19 10° N 14:33:02 21° NW 14:36:44 10° WSW visible
04 Dec 4.5 00:10:59 10° SSW 00:15:45 40° W 00:20:33 10° NNW visible
04 Dec 4.0 12:12:42 10° NNE 12:17:35 45° E 12:22:26 10° S visible
04 Dec 3.5 13:51:56 10° N 13:56:31 35° WNW 14:01:06 10° SW visible
05 Dec 6.0 01:16:04 10° WSW 01:18:38 14° W 01:21:13 10° NW visible
05 Dec 5.1 11:36:18 10° NE 11:40:24 24° E 11:44:29 10° SE visible
05 Dec 2.9 13:14:49 10° N 13:19:51 63° WNW 13:24:52 10° SSW visible
06 Dec 5.3 00:37:03 10° SSW 00:41:17 26° W 00:45:32 10° NW visible
06 Dec 6.0 11:00:51 10° ENE 11:03:01 13° E 11:05:10 10° ESE visible
06 Dec 3.2 12:37:54 10° NNE 12:43:00 70° ESE 12:48:04 10° S visible
06 Dec 4.0 14:17:34 10° N 14:21:36 24° WNW 14:25:37 10° WSW visible
06 Dec 4.1 23:59:13 10° S 00:04:07 49° W 00:09:04 10° NNW visible
07 Dec 4.4 12:01:14 10° NNE 12:05:57 37° E 12:10:38 10° SSE visible
07 Dec 3.3 13:40:17 10° N 13:45:03 42° WNW 13:49:48 10° SW visible
08 Dec 5.9 01:03:39 10° SW 01:06:54 17° W 01:10:10 10° NW visible
08 Dec 5.4 11:25:01 10° NE 11:28:42 20° E 11:32:23 10° SE visible
08 Dec 2.8 13:03:12 10° NNE 13:08:19 77° WNW 13:13:24 10° SSW visible
08 Dec 4.4 14:43:23 10° NNW 14:46:35 17° NW 14:49:47 10° W visible
09 Dec 5.0 00:25:06 10° SSW 00:29:37 31° W 00:34:09 10° NNW visible
09 Dec 3.5 12:26:22 10° NNE 12:31:24 58° E 12:36:24 10° S visible
09 Dec 3.8 14:05:51 10° N 14:10:09 28° WNW 14:14:27 10° WSW visible
09 Dec 3.7 23:47:30 10° S 23:52:31 60° W 23:57:34 10° NNW visible
10 Dec 6.3 01:31:48 10° W 01:32:38 10° W 01:33:29 10° WNW visible
10 Dec 4.7 11:49:48 10° NNE 11:54:18 30° E 11:58:46 10° SSE visible
10 Dec 3.1 13:28:38 10° N 13:33:33 50° WNW 13:38:26 10° SW visible
11 Dec 5.7 00:51:26 10° SW 00:55:11 20° W 00:58:58 10° NW visible
11 Dec 5.6 11:13:48 10° NE 11:16:59 16° E 11:20:09 10° SE visible
11 Dec 2.9 12:51:38 10° NNE 12:56:46 89° ESE 13:01:51 10° SSW visible
11 Dec 4.2 14:31:34 10° N 14:35:10 20° NW 14:38:46 10° W visible
